san ya , China , Asia

  • Monday
    September 27

      Cloudy

      77 °F

      No wind

       

  • Tuesday
    September 28

    Cloudy  Cloudy

    93 °F  77 °F

    No wind  No wind

        

  • Wednesday
    September 29

    Cloudy  Cloudy

    93 °F  77 °F

    No wind  No wind

        

  • Thursday
    September 30

    Cloudy  Cloudy

    93 °F  77 °F

    No wind  No wind

        

  • Friday
    October 1

    Cloudy  Cloudy

    88 °F  75 °F

    No wind  No wind

        

  • Saturday
    October 2

    Cloudy  Cloudy

    88 °F  77 °F

    No wind  No wind

        

  • Sunday
    October 3

    Cloudy  Cloudy

    90 °F  77 °F

    No wind  No wind

        

Date   Weather Temperature Humidity Total_rain Visibility Wind
23:00 Sunny 79°F 95.1% 0mm 143.4km Northeast  3.3m/s
02:00 Sunny 80°F 90.6% 0mm 162.5km Northwest  3.2m/s
05:00 Sunny 77°F 89.6% 0mm 225.1km Northwest  3.2m/s
08:00 Sunny 81°F 86.8% 0mm 260.5km Northeast  1.3m/s
11:00 Sunny 90°F 80.4% 0mm 280km Northeast  2.3m/s
14:00 Sunny 93°F 79.6% 0mm 271.3km Southeast  3.1m/s
17:00 Sunny 88°F 84.1% 0mm 257.5km Southeast  3.3m/s
20:00 Sunny 81°F 90.3% 0mm 161.5km Northeast  1.6m/s
11:00 Sunny 90°F 80.4% 0mm 280km Northeast  2.3m/s
14:00 Sunny 93°F 79.6% 0mm 271.3km Southeast  3.1m/s
17:00 Sunny 88°F 84.1% 0mm 257.5km Southeast  3.3m/s
20:00 Sunny 81°F 90.3% 0mm 161.5km Northeast  1.6m/s
23:00 Sunny 80°F 95.8% 0mm 204.5km Northeast  3.3m/s
02:00 Sunny 79°F 93% 0mm 229.5km Northeast  1.4m/s
05:00 Sunny 77°F 92.5% 0mm 214.7km Northeast  3.3m/s
08:00 Sunny 81°F 92% 0mm 228.7km Northwest  2.2m/s
11:00 Sunny 89°F 83.8% 0mm 264.4km Southwest  3.3m/s
14:00 Sunny 93°F 81.9% 0mm 261.4km Southwest  2.5m/s
17:00 Sunny 88°F 79.6% 0mm 223.8km Southwest  2.2m/s
20:00 Sunny 90°F 77.2% 0mm 247.3km Southeast  2.1m/s
23:00 Sunny 86°F 82.2% 0mm 239.1km Northeast  1.6m/s
02:00 Sunny 88°F 80.8% 0mm 166.1km Northwest  3.2m/s
05:00 Sunny 78°F 76.2% 0mm 172km Northwest  3.3m/s
08:00 Sunny 81°F 74.8% 0mm 202.6km Northwest  1.6m/s
11:00 Sunny 88°F 73.6% 0mm 233.2km Southwest  1.8m/s
14:00 Sunny 93°F 76.8% 0mm 263.9km Southwest  3.3m/s
17:00 Sunny 86°F 74.5% 0mm 261.5km Southwest  2.5m/s
20:00 Sunny 89°F 72.6% 0mm 259.1km Southeast  1.3m/s
23:00 Sunny 84°F 93.7% 0mm 207.5km Southeast  2.7m/s
02:00 Sunny 79°F 95.1% 0mm 155.9km Northwest  3.0m/s
05:00 Sunny 79°F 96.4% 0mm 196.6km Northwest  3.3m/s
08:00 Sunny 80°F 93.1% 0mm 237.2km Northeast  3.0m/s
11:00 Sunny 87°F 86% 0mm 249km Southwest  1.7m/s
14:00 Sunny 89°F 83.3% 0mm 260.7km Southwest  2.7m/s
17:00 Sunny 86°F 83.4% 0mm 262.3km Southeast  2.2m/s
20:00 Sunny 78°F 74.1% 0mm 263.9km Southeast  3.3m/s
23:00 Sunny 78°F 92.6% 0mm 190.2km Northeast  2.2m/s
02:00 Sunny 78°F 89.7% 0mm 116.5km Northeast  2.1m/s
05:00 Sunny 77°F 88.3% 0mm 174km Northeast  3.3m/s
08:00 Sunny 81°F 86.8% 0mm 231.4km Northeast  1.9m/s
11:00 Sunny 88°F 84.5% 0mm 245.8km Southeast  2.2m/s
14:00 Sunny 89°F 85.4% 0mm 260.2km Southeast  3.3m/s
17:00 Sunny 85°F 79.7% 0mm 243.5km Southeast  2.1m/s
20:00 Sunny 83°F 76.5% 0mm 226.8km Southeast  2.5m/s
23:00 Sunny 80°F 92.1% 0mm 165.2km Northeast  2.3m/s
02:00 Sunny 80°F 94.4% 0mm 103.6km Northeast  2.3m/s
05:00 Sunny 78°F 91.6% 0mm 133.1km Northeast  3.3m/s
08:00 Sunny 80°F 89.2% 0mm 162.6km Northeast  1.9m/s
11:00 Cloudy 90°F 86.9% 0mm 205.8km Southeast  2.8m/s
14:00 Cloudy 91°F 83.9% 0mm 248.9km Southeast  2.0m/s
17:00 Sunny 86°F 80.9% 0mm 207.5km Southeast  3.3m/s
20:00 Sunny 80°F 78.4% 0mm 166km Northeast  2.3m/s
23:00 Cloudy 80°F 94.5% 0mm 147.9km Northeast  3.2m/s
02:00 Cloudy 79°F 96.9% 0mm 129.7km Northeast  0.5m/s
05:00 Sunny 78°F 94.7% 0mm 170.5km Northeast  3.3m/s
08:00 Sunny 85°F 93.2% 0mm 211.2km Northeast  2.6m/s